User: anonymous
Location: Dover
(39.1580°N, 75.5250°W)
Time: 10:04:33
(UTC-04:00)
Language:

SeaSat 1 - Orbit

View from above orbital plane
View from above orbital plane
View from above satellite
View from above satellite

Ground track
Ground track

The orbit data is extracted from the following two-line orbital elements,

1 10967U 78064A   14245.12393281  .00000080  00000-0  64434-4 0  3686
2 10967 107.9899 331.6376 0002724 256.8132 163.3037 14.43064604899572
Epoch (UTC): 02 September 2014 02:58:27
Eccentricity: 0.0002724
inclination: 107.9899°
perigee height: 746 km
apogee height: 750 km
right ascension of ascending node: 331.6376°
argument of perigee: 256.8132°
revolutions per day: 14.43064604
mean anomaly at epoch: 163.3037°
orbit number at epoch: 89957

The dashed part of the orbit path shows where the satellite is in the earth's shadow,  

DLR